Location: Club d'Astronomie Sirius du Saguenay
(48.5448°N, 71.1471°W)
Time: 11:42:06
(UTC-04:00)

Amateur Radio Satellites - All Passes

Search period start: 22 October 2017 11:12
Search period end: 23 October 2017 11:12
Location: Club d'Astronomie Sirius du Saguenay, 48.5448°N, 71.1471°W

Satellite Date Start Highest point End Downlink Frequencies (MHz)
Time Altitude Azimuth
DUCHIFAT 1 22 Oct 11:15:13 11:19:07 36° 67° (ENE) 11:23:02 145.980
BEESAT 3 22 Oct 11:15:50 11:18:56 22° 115° (ESE) 11:22:03 437.485
EO-88 22 Oct 11:16:15 11:19:49 53° 287° (WNW) 11:23:21 145.990 - 145.960
BUGSAT 1 22 Oct 11:16:46 11:18:35 13° 57° (ENE) 11:20:25 437.445
Max Valier Satellite 22 Oct 11:31:24 11:34:34 27° 292° (WNW) 11:37:41 145.860
RS-15 22 Oct 11:35:10 11:44:10 27° 259° (W) 11:52:51 29.354- 29.394
PCSat 22 Oct 11:37:56 11:40:28 13° 343° (NNW) 11:43:00 145.827
SO-50 22 Oct 11:46:51 11:48:32 12° 11° (NNE) 11:50:13 436.795
nSIGHT-1 22 Oct 11:50:47 11:53:55 52° 349° (N) 11:57:04 .
Oscar 19 22 Oct 11:53:18 11:56:55 20° 58° (ENE) 12:00:32 437.125/150
M-CUBED/EXP-1 PRIME 22 Oct 11:56:08 11:57:45 13° 56° (NE) 11:59:22 437.505
LO-87 22 Oct 11:58:37 12:02:16 65° 102° (ESE) 12:05:51 145.935 - 145.965
AO-85 22 Oct 12:03:31 12:05:23 13° 110° (ESE) 12:07:16 145.980
AIST 2D 22 Oct 12:10:36 12:12:51 16° 268° (W) 12:15:08 435.315
EO-79 22 Oct 12:14:22 12:18:29 46° 261° (W) 12:22:38 145.935-145.965
AO-7 22 Oct 12:19:32 12:23:53 16° 35° (NE) 12:28:15 .
POLYITAN 1 22 Oct 12:19:50 12:23:53 41° 262° (W) 12:27:59 437.675
ESTCUBE 1 22 Oct 12:21:09 12:25:38 73° 102° (ESE) 12:30:07 437.505/2401.250
ISS 22 Oct 12:29:21 12:32:31 47° 356° (N) 12:35:42 437.550
SPROUT 22 Oct 12:35:38 12:39:22 28° 95° (E) 12:43:04 437.525
BEESAT 2 22 Oct 12:40:49 12:44:40 47° 122° (ESE) 12:48:35 435.950
Gurwin Techsat 1B 22 Oct 12:40:59 12:45:42 34° 64° (ENE) 12:50:27 435.225
QB50P2 22 Oct 12:41:05 12:44:33 24° 267° (W) 12:48:02 145.880/145.840
NANOSAT C BR1 22 Oct 12:41:41 12:45:22 28° 265° (W) 12:49:04 145.865
BUGSAT 1 22 Oct 12:49:04 12:53:17 88° 257° (WSW) 12:57:33 437.445
DUCHIFAT 1 22 Oct 12:51:18 12:54:51 25° 266° (W) 12:58:25 145.980
YUBILEINY 22 Oct 12:51:30 12:54:39 12° 317° (NW) 12:57:49 435.215
BEESAT 3 22 Oct 12:52:17 12:56:12 50° 314° (NW) 13:00:09 437.485
PCSat 22 Oct 13:24:41 13:26:25 11° 10° (N) 13:28:10 145.827
SO-50 22 Oct 13:26:36 13:30:31 27° 35° (NE) 13:34:28 436.795
nSIGHT-1 22 Oct 13:27:21 13:30:30 52° 10° (N) 13:33:39 .
M-CUBED/EXP-1 PRIME 22 Oct 13:28:38 13:31:53 50° 254° (WSW) 13:35:04 437.505
Oscar 19 22 Oct 13:30:33 13:35:43 73° 257° (WSW) 13:40:53 437.125/150
LO-87 22 Oct 13:33:37 13:35:10 12° 300° (WNW) 13:36:43 145.935 - 145.965
VELOX 1 22 Oct 13:37:15 13:41:43 79° 102° (ESE) 13:46:10 145.980
AO-85 22 Oct 13:41:16 13:45:09 74° 309° (NW) 13:49:13 145.980
50 SAT 22 Oct 13:41:42 13:44:28 24° 96° (E) 13:47:14 437.505
ESTCUBE 1 22 Oct 13:59:11 14:01:55 16° 301° (WNW) 14:04:39 437.505/2401.250
ISS 22 Oct 14:06:00 14:09:16 67° 17° (NNE) 14:12:32 437.550
AO-7 22 Oct 14:06:55 14:14:44 48° 58° (ENE) 14:22:33 .
ITAMSAT 1 22 Oct 14:09:30 14:13:32 23° 59° (ENE) 14:17:35 435.822/435.867
SPROUT 22 Oct 14:11:24 14:15:17 33° 293° (WNW) 14:19:08 437.525
BEESAT 2 22 Oct 14:19:05 14:22:35 27° 322° (NW) 14:26:07 435.950
Gurwin Techsat 1B 22 Oct 14:20:36 14:25:34 40° 263° (W) 14:30:35 435.225
BEESAT 3 22 Oct 14:32:38 14:34:40 13° 335° (NNW) 14:36:41 437.485
DX 1 22 Oct 14:36:12 14:40:36 82° 106° (ESE) 14:45:00 434.975-435.025
UKube-1 22 Oct 14:55:21 14:59:42 84° 102° (ESE) 15:04:03 .
nSIGHT-1 22 Oct 15:03:41 15:06:48 52° 210° (SSW) 15:09:56 .
SO-50 22 Oct 15:06:46 15:11:20 64° 236° (SW) 15:15:57 436.795
PCSat 22 Oct 15:07:27 15:11:52 24° 35° (NE) 15:16:17 145.827
50 SAT 22 Oct 15:14:02 15:16:42 23° 293° (WNW) 15:19:22 437.505
Oscar 19 22 Oct 15:14:56 15:15:56 10° 275° (W) 15:16:57 437.125/150
VELOX 1 22 Oct 15:15:06 15:17:35 15° 302° (WNW) 15:20:05 145.980
ITUPSAT 1 22 Oct 15:20:51 15:24:43 23° 93° (E) 15:28:32 437.325
AO-85 22 Oct 15:23:42 15:26:18 16° 333° (NNW) 15:28:57 145.980
BEESAT 22 Oct 15:34:29 15:38:46 31° 96° (E) 15:43:00 436.000
DOVE 4 22 Oct 15:38:48 15:41:28 16° 58° (ENE) 15:44:14 437.250
ISS 22 Oct 15:42:39 15:45:36 31° 215° (SW) 15:48:32 437.550
ITAMSAT 1 22 Oct 15:47:28 15:52:36 61° 258° (WSW) 15:57:47 435.822/435.867
AO-7 22 Oct 15:59:34 16:07:31 49° 259° (W) 16:15:30 .
MOZHAYETS 4 22 Oct 16:06:01 16:10:37 72° 102° (ESE) 16:15:10
DX 1 22 Oct 16:13:53 16:16:11 14° 303° (WNW) 16:18:29 434.975-435.025
CUBESAT XI-V 22 Oct 16:23:50 16:27:46 27° 94° (E) 16:31:41 437.345
UKube-1 22 Oct 16:32:57 16:35:07 14° 303° (WNW) 16:37:17 .
LilacSat-2 22 Oct 16:33:24 16:35:12 13° 60° (ENE) 16:37:01 437.200
CUTE-I 22 Oct 16:35:52 16:39:32 19° 56° (ENE) 16:43:13 437.470
XW-2D 22 Oct 16:37:14 16:39:10 14° 61° (ENE) 16:41:05 145.860 - 145.880
XW-2B 22 Oct 16:50:03 16:52:36 17° 63° (ENE) 16:55:09 145.730 - 145.750
PCSat 22 Oct 16:50:30 16:55:57 85° 238° (WSW) 17:01:22 145.827
ITUPSAT 1 22 Oct 16:58:09 17:02:47 48° 291° (WNW) 17:07:22 437.325
BEESAT 22 Oct 17:12:12 17:16:34 36° 294° (WNW) 17:20:54 436.000
XW-2C 22 Oct 17:12:32 17:15:51 29° 68° (ENE) 17:19:09 145.795 - 145.815
HO-68 22 Oct 17:14:07 17:19:49 26° 53° (NE) 17:25:31 435.675
DOVE 4 22 Oct 17:14:24 17:18:37 66° 258° (WSW) 17:23:05 437.250
KKS-1 22 Oct 17:16:00 17:19:46 26° 94° (E) 17:23:32 437.445
CUTE 1.7 + AOD 2 22 Oct 17:22:40 17:24:05 11° 57° (ENE) 17:25:29 437.475
STARS 22 Oct 17:42:03 17:45:25 21° 92° (E) 17:48:45 437.465
MOZHAYETS 4 22 Oct 17:44:22 17:47:14 17° 301° (WNW) 17:50:06
KAITUO 1B 22 Oct 17:48:42 17:52:20 54° 73° (ENE) 17:55:59 145.475/437.950
BEESAT 3 22 Oct 17:51:33 17:53:23 13° 24° (NNE) 17:55:12 437.485
XW-2F 22 Oct 17:54:39 17:58:25 81° 78° (ENE) 18:02:12 145.980 - 146.000
NUDT-PHONESAT 22 Oct 17:58:40 18:02:21 68° 74° (ENE) 18:06:03 437.300
CUBESAT XI-V 22 Oct 18:00:58 18:05:14 38° 292° (WNW) 18:09:29 437.345
LilacSat-2 22 Oct 18:05:11 18:08:59 67° 259° (W) 18:12:48 437.200
XW-2D 22 Oct 18:09:07 18:12:53 63° 259° (W) 18:16:38 145.860 - 145.880
CUTE-I 22 Oct 18:13:39 18:18:58 79° 256° (WSW) 18:24:21 437.470
XW-2B 22 Oct 18:22:49 18:26:28 45° 261° (W) 18:30:08 145.730 - 145.750
AO-73 22 Oct 18:29:45 18:31:10 11° 56° (NE) 18:32:36 145.935
PCSat 22 Oct 18:35:37 18:38:32 15° 256° (WSW) 18:41:26 145.827
CUBEBUG 2 22 Oct 18:45:06 18:49:35 44° 69° (ENE) 18:54:07 437.445
XW-2C 22 Oct 18:46:51 18:50:02 25° 266° (W) 18:53:12 145.795 - 145.815
AO-85 22 Oct 18:48:31 18:50:48 14° 23° (NNE) 18:53:11 145.980
ZACube-1 22 Oct 18:51:14 18:54:29 19° 61° (ENE) 18:57:43 437.345
KKS-1 22 Oct 18:52:15 18:56:26 39° 293° (WNW) 19:00:36 437.445
XW-2A 22 Oct 18:53:44 18:56:42 28° 69° (ENE) 18:59:40 145.665 - 145.685
YUBILEINY 22 Oct 18:54:57 19:02:25 29° 61° (ENE) 19:09:51 435.215
CUTE 1.7 + AOD 2 22 Oct 18:55:00 18:59:14 86° 77° (ENE) 19:03:28 437.475
SEEDS 22 Oct 18:57:18 19:01:23 58° 73° (ENE) 19:05:30 437.485
HO-68 22 Oct 18:59:39 19:06:50 81° 254° (WSW) 19:14:06 435.675
AAUSAT CUBESAT 2 22 Oct 19:13:44 19:17:33 39° 70° (ENE) 19:21:24 437.432
O/OREOS (USA 219) 22 Oct 19:17:28 19:19:47 14° 98° (E) 19:22:08 437.305
BEESAT 2 22 Oct 19:17:37 19:20:37 19° 32° (NNE) 19:23:36 435.950
STARS 22 Oct 19:17:43 19:22:00 48° 291° (WNW) 19:26:16 437.465
UWE-3 22 Oct 19:17:48 19:22:21 55° 71° (ENE) 19:26:56 435.000/436.395/437.385
Oscar 11 22 Oct 19:23:17 19:26:41 23° 64° (ENE) 19:30:05 .
KAITUO 1B 22 Oct 19:24:45 19:26:39 13° 270° (W) 19:28:33 145.475/437.950
BEESAT 3 22 Oct 19:28:01 19:31:53 46° 45° (NE) 19:35:41 437.485
NUDT-PHONESAT 22 Oct 19:35:41 19:36:38 11° 272° (W) 19:37:36 437.300
STRAND 1 22 Oct 19:51:38 19:56:33 41° 98° (E) 20:01:24 437.568
CUTE-I 22 Oct 19:57:52 19:59:54 12° 275° (W) 20:01:56 437.470
AO-73 22 Oct 20:02:03 20:06:37 74° 74° (ENE) 20:11:09 145.935
DELFI C3 22 Oct 20:18:55 20:21:38 18° 63° (ENE) 20:24:22 145.870
CUBEBUG 2 22 Oct 20:22:29 20:26:22 25° 268° (W) 20:30:18 437.445
ZACube-1 22 Oct 20:25:48 20:30:20 60° 259° (W) 20:34:52 437.345
EO-88 22 Oct 20:26:10 20:27:22 11° 60° (ENE) 20:28:34 145.990 - 145.960
XW-2A 22 Oct 20:26:47 20:29:25 21° 266° (W) 20:32:04 145.665 - 145.685
AO-85 22 Oct 20:27:58 20:32:14 45° 45° (NE) 20:36:50 145.980
CUTE 1.7 + AOD 2 22 Oct 20:34:45 20:35:40 11° 274° (W) 20:36:35 437.475
SEEDS 22 Oct 20:34:56 20:37:26 15° 270° (W) 20:39:58 437.485
Max Valier Satellite 22 Oct 20:40:06 20:42:57 21° 65° (ENE) 20:45:48 145.860
AAUSAT CUBESAT 2 22 Oct 20:49:59 20:53:10 21° 268° (W) 20:56:22 437.432
HO-68 22 Oct 20:51:12 20:55:40 17° 274° (W) 21:00:11 435.675
YUBILEINY 22 Oct 20:51:22 21:00:11 77° 264° (W) 21:08:58 435.215
FO-29 22 Oct 20:53:21 20:59:44 37° 95° (E) 21:06:39 435.910
O/OREOS (USA 219) 22 Oct 20:53:59 20:58:33 78° 297° (WNW) 21:03:11 437.305
BEESAT 2 22 Oct 20:54:48 20:58:53 84° 230° (SW) 21:02:53 435.950
UWE-3 22 Oct 20:55:40 20:59:06 20° 270° (W) 21:02:34 435.000/436.395/437.385
Oscar 11 22 Oct 20:58:27 21:02:34 43° 262° (W) 21:06:44 .
BEESAT 3 22 Oct 21:06:02 21:09:11 23° 245° (WSW) 21:12:17 437.485
STRAND 1 22 Oct 21:31:04 21:35:36 32° 297° (WNW) 21:40:07 437.568
AO-73 22 Oct 21:40:51 21:43:20 14° 272° (W) 21:45:50 145.935
ESTCUBE 1 22 Oct 21:49:48 21:52:16 15° 58° (ENE) 21:54:45 437.505/2401.250
DELFI C3 22 Oct 21:52:19 21:56:05 45° 261° (W) 21:59:52 145.870
UNISAT 6 22 Oct 21:56:14 22:00:11 27° 94° (E) 22:04:02 437.425
EO-88 22 Oct 21:56:50 22:00:28 73° 258° (WSW) 22:04:08 145.990 - 145.960
AO-85 22 Oct 22:08:33 22:12:33 31° 242° (WSW) 22:16:49 145.980
TIGRISAT 22 Oct 22:10:07 22:14:19 34° 95° (E) 22:18:25 435.000
PRISM 22 Oct 22:12:58 22:15:35 16° 91° (E) 22:18:12 437.425
Max Valier Satellite 22 Oct 22:13:09 22:16:35 35° 263° (W) 22:20:02 145.860
BEESAT 2 22 Oct 22:35:08 22:35:53 10° 251° (WSW) 22:36:39 435.950
O/OREOS (USA 219) 22 Oct 22:36:13 22:38:47 15° 318° (NW) 22:41:21 437.305
LO-87 22 Oct 22:37:46 22:41:13 45° 71° (ENE) 22:44:43 145.935 - 145.965
FO-29 22 Oct 22:38:18 22:44:56 55° 292° (WNW) 22:52:15 435.910
YUBILEINY 22 Oct 22:50:05 22:55:27 18° 287° (WNW) 23:00:51 435.215
VELOX 1 22 Oct 23:03:46 23:06:18 15° 58° (ENE) 23:08:50 145.980
ESTCUBE 1 22 Oct 23:24:00 23:28:29 80° 257° (WSW) 23:32:59 437.505/2401.250
AIST 2D 22 Oct 23:30:21 23:33:23 27° 95° (E) 23:36:23 435.315
SPROUT 22 Oct 23:32:10 23:36:03 34° 68° (ENE) 23:39:58 437.525
UNISAT 6 22 Oct 23:32:42 23:36:59 38° 292° (WNW) 23:41:10 437.425
TIGRISAT 22 Oct 23:46:52 23:50:56 31° 295° (WNW) 23:54:56 435.000
PRISM 22 Oct 23:47:08 23:51:11 55° 288° (WNW) 23:55:13 437.425
RS-15 22 Oct 23:48:27 23:59:40 44° 110° (ESE) 00:10:52 29.354- 29.394
EO-79 22 Oct 23:55:28 23:58:47 22° 92° (E) 00:02:05 145.935-145.965
POLYITAN 1 23 Oct 00:00:53 00:04:23 24° 94° (E) 00:07:52 437.675
DX 1 23 Oct 00:01:09 00:03:43 16° 58° (ENE) 00:06:17 434.975-435.025
LO-87 23 Oct 00:12:43 00:14:52 15° 269° (W) 00:17:03 145.935 - 145.965
50 SAT 23 Oct 00:14:15 00:16:21 16° 64° (ENE) 00:18:27 437.505
UKube-1 23 Oct 00:19:21 00:21:52 15° 58° (ENE) 00:24:23 .
QB50P2 23 Oct 00:21:00 00:25:05 42° 98° (E) 00:29:07 145.880/145.840
NANOSAT C BR1 23 Oct 00:21:25 00:25:20 35° 97° (E) 00:29:12 145.865
FO-29 23 Oct 00:25:29 00:28:44 14° 312° (NW) 00:32:07 435.910
BUGSAT 1 23 Oct 00:29:34 00:30:26 11° 86° (E) 00:31:17 437.445
DUCHIFAT 1 23 Oct 00:30:30 00:34:29 38° 98° (E) 00:38:25 145.980
VELOX 1 23 Oct 00:37:48 00:42:10 75° 256° (WSW) 00:46:36 145.980
AIST 2D 23 Oct 01:03:41 01:06:28 22° 293° (WNW) 01:09:13 435.315
SPROUT 23 Oct 01:08:20 01:11:59 27° 266° (W) 01:15:41 437.525
EO-79 23 Oct 01:30:41 01:34:44 42° 291° (WNW) 01:38:44 145.935-145.965
DX 1 23 Oct 01:35:03 01:39:22 72° 257° (WSW) 01:43:43 434.975-435.025
POLYITAN 1 23 Oct 01:36:19 01:40:16 37° 292° (WNW) 01:44:11 437.675
MOZHAYETS 4 23 Oct 01:36:29 01:39:15 16° 58° (ENE) 01:41:59
Oscar 19 23 Oct 01:38:30 01:42:58 29° 95° (E) 01:47:23 437.125/150
50 SAT 23 Oct 01:45:22 01:48:23 35° 262° (W) 01:51:27 437.505
UKube-1 23 Oct 01:53:04 01:57:21 72° 256° (WSW) 02:01:41 .
NO-84 23 Oct 01:54:11 01:57:17 20° 130° (SE) 02:00:23 435.350 FM
QB50P2 23 Oct 01:57:17 02:00:38 23° 297° (WNW) 02:03:59 145.880/145.840
NANOSAT C BR1 23 Oct 01:57:20 02:00:55 27° 295° (WNW) 02:04:28 145.865
RS-15 23 Oct 01:59:16 02:11:38 72° 315° (NW) 02:23:53 29.354- 29.394
BUGSAT 1 23 Oct 02:02:09 02:06:24 87° 288° (WNW) 02:10:36 437.445
DUCHIFAT 1 23 Oct 02:06:30 02:09:59 25° 296° (WNW) 02:13:25 145.980
ITUPSAT 1 23 Oct 02:30:49 02:35:20 42° 68° (ENE) 02:39:53 437.325
Gurwin Techsat 1B 23 Oct 02:32:20 02:37:37 60° 101° (ESE) 02:42:52 435.225
M-CUBED/EXP-1 PRIME 23 Oct 02:36:18 02:39:48 50° 107° (ESE) 02:43:32 437.505
BEESAT 23 Oct 02:44:09 02:48:50 56° 70° (ENE) 02:53:32 436.000
MOZHAYETS 4 23 Oct 03:11:10 03:15:48 79° 256° (WSW) 03:20:28
Oscar 19 23 Oct 03:17:35 03:22:26 43° 293° (WNW) 03:27:14 437.125/150
NO-84 23 Oct 03:29:57 03:34:17 87° 144° (SE) 03:38:30 435.350 FM
CUBESAT XI-V 23 Oct 03:30:26 03:34:46 41° 68° (ENE) 03:39:05 437.345
BUGSAT 1 23 Oct 03:39:29 03:41:03 12° 304° (WNW) 03:42:38 437.445
O/OREOS (USA 219) 23 Oct 03:43:51 03:45:03 11° 37° (NE) 03:46:14 437.305
AO-7 23 Oct 03:56:11 04:04:10 47° 100° (E) 04:12:05 .
ITAMSAT 1 23 Oct 03:56:27 04:01:15 35° 96° (E) 04:06:02 435.822/435.867
ITUPSAT 1 23 Oct 04:09:14 04:13:18 27° 266° (W) 04:17:25 437.325
M-CUBED/EXP-1 PRIME 23 Oct 04:11:40 04:13:59 17° 302° (WNW) 04:16:23 437.505
Gurwin Techsat 1B 23 Oct 04:12:59 04:17:11 24° 300° (WNW) 04:21:21 435.225
RS-15 23 Oct 04:15:14 04:26:35 39° 345° (NNW) 04:37:40 29.354- 29.394
KKS-1 23 Oct 04:17:19 04:21:25 38° 67° (ENE) 04:25:34 437.445
BEESAT 23 Oct 04:23:24 04:26:57 20° 268° (W) 04:30:30 436.000
STARS 23 Oct 04:41:53 04:45:42 30° 65° (ENE) 04:49:34 437.465
NO-84 23 Oct 05:08:02 05:12:02 38° 347° (NNW) 05:15:54 435.350 FM
CUBESAT XI-V 23 Oct 05:08:26 05:12:16 25° 267° (W) 05:16:07 437.345
DOVE 4 23 Oct 05:08:42 05:13:01 28° 94° (E) 05:17:28 437.250
O/OREOS (USA 219) 23 Oct 05:21:04 05:25:36 52° 59° (ENE) 05:30:05 437.305
SO-50 23 Oct 05:26:09 05:28:52 16° 111° (ESE) 05:31:34 436.795
STRAND 1 23 Oct 05:34:56 05:37:49 15° 54° (NE) 05:40:44 437.568
ITAMSAT 1 23 Oct 05:35:56 05:40:44 37° 295° (WNW) 05:45:31 435.822/435.867
XW-2D 23 Oct 05:40:12 05:40:47 10° 87° (E) 05:41:22 145.860 - 145.880
AO-7 23 Oct 05:49:07 05:56:59 50° 301° (WNW) 06:04:52 .
XW-2B 23 Oct 05:52:30 05:54:30 14° 90° (E) 05:56:31 145.730 - 145.750
KKS-1 23 Oct 05:54:21 05:58:05 26° 266° (W) 06:01:50 437.445
XW-2C 23 Oct 06:15:04 06:18:11 24° 94° (E) 06:21:18 145.795 - 145.815
STARS 23 Oct 06:17:59 06:21:58 33° 263° (W) 06:26:01 437.465
HO-68 23 Oct 06:24:48 06:29:02 16° 85° (E) 06:33:14 435.675
CUTE-I 23 Oct 06:26:59 06:31:45 31° 95° (E) 06:36:30 437.470
RS-15 23 Oct 06:31:32 06:42:56 41° 19° (NNE) 06:53:50 29.354- 29.394
CUTE 1.7 + AOD 2 23 Oct 06:37:59 06:39:25 11° 87° (E) 06:40:52 437.475
DOVE 4 23 Oct 06:46:04 06:50:49 45° 291° (WNW) 06:55:46 437.250
NO-84 23 Oct 06:46:19 06:50:10 35° 8° (N) 06:53:49 435.350 FM
KAITUO 1B 23 Oct 06:49:41 06:53:14 44° 99° (E) 06:56:46 145.475/437.950
XW-2F 23 Oct 06:56:45 07:00:29 69° 102° (ESE) 07:04:11 145.980 - 146.000
NUDT-PHONESAT 23 Oct 06:58:38 07:02:15 54° 101° (E) 07:05:49 437.300
O/OREOS (USA 219) 23 Oct 07:01:12 07:04:40 21° 258° (WSW) 07:08:06 437.305
SO-50 23 Oct 07:04:15 07:08:44 78° 309° (NW) 07:13:16 436.795
LilacSat-2 23 Oct 07:08:37 07:12:24 75° 284° (WNW) 07:16:09 437.200
STRAND 1 23 Oct 07:11:06 07:16:15 85° 73° (ENE) 07:21:27 437.568
XW-2D 23 Oct 07:11:41 07:15:27 72° 285° (WNW) 07:19:10 145.860 - 145.880
FO-29 23 Oct 07:11:56 07:15:55 21° 54° (NE) 07:20:10 435.910
XW-2B 23 Oct 07:25:21 07:29:00 52° 287° (WNW) 07:32:38 145.730 - 145.750
PCSat 23 Oct 07:35:52 07:40:54 40° 114° (ESE) 07:45:56 145.827
AO-7 23 Oct 07:43:23 07:47:52 16° 325° (NW) 07:52:22 .
XW-2A 23 Oct 07:44:20 07:46:38 17° 93° (E) 07:48:54 145.665 - 145.685
AO-73 23 Oct 07:48:53 07:49:51 11° 85° (E) 07:50:48 145.935
XW-2C 23 Oct 07:49:06 07:52:22 29° 292° (WNW) 07:55:37 145.795 - 145.815
YUBILEINY 23 Oct 08:02:21 08:09:13 27° 79° (E) 08:16:07 435.215
CUTE-I 23 Oct 08:06:51 08:11:56 44° 294° (WNW) 08:16:59 437.470
CUBEBUG 2 23 Oct 08:08:26 08:13:02 58° 100° (E) 08:17:28 437.445
HO-68 23 Oct 08:10:41 08:17:57 77° 106° (ESE) 08:25:09 435.675
ZACube-1 23 Oct 08:11:00 08:14:18 21° 91° (E) 08:17:31 437.345
CUTE 1.7 + AOD 2 23 Oct 08:11:36 08:15:48 79° 287° (WNW) 08:20:01 437.475
SEEDS 23 Oct 08:12:31 08:16:41 68° 101° (E) 08:20:50 437.485
NO-84 23 Oct 08:23:56 08:28:00 81° 30° (NNE) 08:31:45 435.350 FM
KAITUO 1B 23 Oct 08:24:28 08:26:55 17° 297° (WNW) 08:29:21 145.475/437.950
AAUSAT CUBESAT 2 23 Oct 08:26:51 08:30:48 43° 98° (E) 08:34:45 437.432
ISS 23 Oct 08:27:17 08:27:43 10° 134° (SE) 08:28:10 437.550
XW-2F 23 Oct 08:32:33 08:34:05 12° 300° (WNW) 08:35:37 145.980 - 146.000
NUDT-PHONESAT 23 Oct 08:33:41 08:35:42 14° 298° (WNW) 08:37:43 437.300
UWE-3 23 Oct 08:39:54 08:44:25 71° 101° (ESE) 08:48:46 435.000/436.395/437.385
Oscar 11 23 Oct 08:41:50 08:45:27 26° 94° (E) 08:49:04 .
RS-15 23 Oct 08:45:15 08:57:25 81° 50° (NE) 09:08:52 29.354- 29.394
SO-50 23 Oct 08:46:37 08:49:55 19° 332° (NNW) 08:53:14 436.795
STRAND 1 23 Oct 08:53:17 08:56:06 15° 273° (W) 08:58:57 437.568
FO-29 23 Oct 08:55:01 09:00:20 73° 257° (WSW) 09:06:13 435.910
UNISAT 6 23 Oct 08:58:04 09:02:23 38° 67° (ENE) 09:06:44 437.425
PRISM 23 Oct 09:05:40 09:08:37 20° 62° (ENE) 09:11:35 437.425
TIGRISAT 23 Oct 09:11:45 09:16:13 46° 69° (ENE) 09:20:44 435.000
XW-2A 23 Oct 09:16:25 09:19:27 32° 290° (WNW) 09:22:27 145.665 - 145.685
PCSat 23 Oct 09:19:10 09:24:17 41° 314° (NW) 09:29:28 145.827
nSIGHT-1 23 Oct 09:19:43 09:22:34 30° 144° (SE) 09:25:24 .
AO-73 23 Oct 09:22:23 09:26:46 88° 283° (WNW) 09:31:00 145.935
DELFI C3 23 Oct 09:25:52 09:28:29 17° 91° (E) 09:31:07 145.870
Max Valier Satellite 23 Oct 09:39:44 09:42:04 16° 91° (E) 09:44:24 145.860
CUBEBUG 2 23 Oct 09:45:52 09:49:13 20° 299° (WNW) 09:52:29 437.445
ZACube-1 23 Oct 09:46:37 09:50:50 45° 290° (WNW) 09:54:54 437.345
SEEDS 23 Oct 09:49:29 09:51:53 15° 300° (WNW) 09:54:17 437.485
CUTE 1.7 + AOD 2 23 Oct 09:50:00 09:50:54 11° 304° (WNW) 09:51:49 437.475
YUBILEINY 23 Oct 09:56:26 10:05:08 77° 281° (WNW) 10:13:56 435.215
HO-68 23 Oct 09:59:11 10:05:02 28° 306° (NW) 10:10:53 435.675
ISS 23 Oct 10:00:24 10:03:35 53° 151° (SSE) 10:06:47 437.550
NO-84 23 Oct 10:02:04 10:04:56 20° 230° (SW) 10:07:38 435.350 FM
AAUSAT CUBESAT 2 23 Oct 10:02:53 10:06:00 21° 296° (WNW) 10:09:07 437.432
AIST 2D 23 Oct 10:08:25 10:10:58 19° 66° (ENE) 10:13:31 435.315
UWE-3 23 Oct 10:17:33 10:20:19 16° 301° (WNW) 10:23:02 435.000/436.395/437.385
Oscar 11 23 Oct 10:17:44 10:21:41 36° 292° (WNW) 10:25:36 .
SO-50 23 Oct 10:31:06 10:32:09 11° 356° (N) 10:33:12 436.795
UNISAT 6 23 Oct 10:35:04 10:39:09 29° 266° (W) 10:43:16 437.425
PRISM 23 Oct 10:39:42 10:43:35 45° 260° (W) 10:47:32 437.425
FO-29 23 Oct 10:45:40 10:46:47 11° 280° (W) 10:47:54 435.910
TIGRISAT 23 Oct 10:49:21 10:53:07 24° 268° (W) 10:56:56 435.000
EO-79 23 Oct 10:51:09 10:54:45 27° 65° (ENE) 10:58:22 145.935-145.965
EO-88 23 Oct 10:55:02 10:58:41 85° 99° (E) 11:02:19 145.990 - 145.960
nSIGHT-1 23 Oct 10:55:29 10:58:40 68° 343° (NNW) 11:01:52 .
POLYITAN 1 23 Oct 10:56:39 11:00:25 30° 66° (ENE) 11:04:11 437.675
BEESAT 3 23 Oct 10:58:32 11:01:37 21° 115° (ESE) 11:04:42 437.485
DELFI C3 23 Oct 10:59:40 11:03:30 48° 289° (WNW) 11:07:20 145.870
AO-73 23 Oct 11:00:33 11:02:16 12° 304° (WNW) 11:03:58 145.935
